FW9019 Weather Reports


Display with metric or nautical units.
time (UTC)temp
F
wind
direction
speed
MPH
gust
MPH
rain 1hr
in
rain 24hr
in
rain mn
in
humidity
%
barometer
mb
20260503212030 59 70 2.0 5.0 0.00 0.00 0.00 40 1011.6
20260503211112 59 114 2.0 3.0 0.00 0.00 0.00 40 1011.9
20260503210052 59 64 2.0 5.0 0.00 0.00 0.00 40 1012.0
20260503205032 59 78 2.0 5.0 0.00 0.00 0.00 40 1012.3
20260503204114 59 77 2.0 3.0 0.00 0.00 0.00 40 1012.6
20260503203054 61 76 2.0 3.0 0.00 0.00 0.00 38 1012.7
20260503202034 62 85 2.0 5.0 0.00 0.00 0.00 37 1013.1
20260503201137 61 97 2.0 5.0 0.00 0.00 0.00 38 1013.1
20260503200116 59 78 2.0 7.0 0.00 0.00 0.00 40 1013.4
20260503195036 59 48 2.0 5.0 0.00 0.00 0.00 41 1013.8
20260503194138 58 103 2.0 3.0 0.00 0.00 0.00 41 1014.3
20260503193058 58 92 1.0 3.0 0.00 0.00 0.00 40 1014.9
20260503192038 59 112 1.0 3.0 0.00 0.00 0.00 39 1014.7
20260503191019 58 80 1.0 3.0 0.00 0.00 0.00 39 1014.5
20260503190101 59 83 2.0 3.0 0.00 0.00 0.00 38 1014.6
20260503185040 59 47 2.0 5.0 0.00 0.00 0.00 38 1014.3
20260503184021 60 23 2.0 6.0 0.00 0.00 0.00 37 1014.6
20260503183102 59 82 2.0 5.0 0.00 0.00 0.00 39 1014.9
20260503182042 57 39 2.0 5.0 0.00 0.00 0.00 40 1015.3
20260503181042 56 80 2.0 6.0 0.00 0.00 0.00 41 1015.8
20260503180104 56 117 2.0 5.0 0.00 0.00 0.00 40 1015.8
20260503175047 57 168 2.0 5.0 0.00 0.00 0.00 39 1016.0
20260503174055 57 93 2.0 5.0 0.00 0.00 0.00 38 1016.1
20260503173055 57 93 2.0 6.0 0.00 0.00 0.00 37 1016.2
20260503172118 59 103 2.0 3.0 0.00 0.00 0.00 36 1016.4
20260503171058 59 94 2.0 5.0 0.00 0.00 0.00 36 1016.4
20260503160113 59 36 3.0 6.0 0.00 0.00 0.00 36 1017.2
20260503150116 56 89 1.0 5.0 0.00 0.00 0.00 37 1017.6
20260503131113 50 146 1.0 3.0 0.00 0.00 0.00 46 1018.0
20260503130113 49 154 1.0 2.0 0.00 0.00 0.00 48 1018.0
20260503110121 36 0.0 0.0 0.00 0.00 0.00 72 1017.6
20260503100105 35 0.0 0.0 0.00 0.00 0.00 73 1017.2
20260503090109 35 0.0 0.0 0.00 0.00 0.00 73 1017.2
20260503081032 36 0.0 0.0 0.00 0.00 0.00 72 1017.3
20260503080113 36 0.0 0.0 0.00 0.00 0.00 73 1017.4
20260503072055 35 0.0 0.0 0.00 0.00 0.00 80 1017.4
20260503071106 34 0.0 0.0 0.00 0.00 0.00 81 1017.2
20260503070106 34 0.0 0.0 0.00 0.00 0.00 81 1017.4
20260503055101 33 0.0 0.0 0.00 0.00 0.00 79 1017.9
20260503054041 33 0.0 0.0 0.00 0.00 0.00 79 1018.1
20260503053054 34 0.0 0.0 0.00 0.00 0.00 78 1017.9
20260503052033 34 0.0 0.0 0.00 0.00 0.00 78 1018.0
20260503051114 34 0.0 0.0 0.00 0.00 0.00 78 1017.9
20260503050124 34 0.0 0.0 0.00 0.00 0.00 77 1018.0
20260503045034 34 0.0 0.0 0.00 0.00 0.00 76 1018.1
20260503044136 34 0.0 0.0 0.00 0.00 0.00 76 1018.0
20260503043056 34 0.0 0.0 0.00 0.00 0.00 75 1018.1
20260503042138 35 0.0 0.0 0.00 0.00 0.00 74 1018.0
20260503041048 35 0.0 0.0 0.00 0.00 0.00 74 1018.0
20260503040027 35 0.0 0.0 0.00 0.00 0.00 73 1018.0
20260503035109 36 0.0 0.0 0.00 0.00 0.00 72 1018.0
20260503034039 36 0.0 0.0 0.00 0.00 0.00 71 1018.1
20260503033100 37 0.0 0.0 0.00 0.00 0.00 71 1018.1
20260503032142 36 0.0 0.0 0.00 0.00 0.00 72 1018.1
20260503031051 36 0.0 0.0 0.00 0.00 0.00 70 1018.1
20260503030031 36 0.0 0.0 0.00 0.00 0.00 69 1018.1
20260503025113 37 0.0 0.0 0.00 0.00 0.00 69 1018.1
20260503024053 37 0.0 0.0 0.00 0.00 0.00 67 1018.1
20260503023033 38 0.0 0.0 0.00 0.00 0.00 66 1018.0
20260503022115 38 0.0 0.0 0.00 0.00 0.00 63 1018.0
20260503021055 38 0.0 0.0 0.00 0.00 0.00 62 1018.0
20260503020055 39 0.0 0.0 0.00 0.00 0.00 60 1017.8
20260503015117 40 0.0 0.0 0.00 0.00 0.00 58 1017.7
20260503014059 40 0.0 0.0 0.00 0.00 0.00 55 1017.7
20260503013037 41 0.0 0.0 0.00 0.00 0.00 53 1017.6
20260503012017 42 0.0 0.0 0.00 0.00 0.00 50 1017.7
20260503011059 44 0.0 0.0 0.00 0.00 0.00 47 1017.5
20260503010039 45 0.0 0.0 0.00 0.00 0.00 44 1017.5
20260503005019 46 0.0 0.0 0.00 0.00 0.00 39 1017.5
20260503004101 47 0.0 0.0 0.00 0.00 0.00 38 1017.5
20260503003101 47 161 0.0 1.0 0.00 0.00 0.00 37 1017.5
20260503002021 48 0.0 0.0 0.00 0.00 0.00 36 1017.4
20260503001103 48 0.0 0.0 0.00 0.00 0.00 36 1017.4
20260503000103 48 161 0.0 2.0 0.00 0.00 0.00 34 1017.4
20260502235023 49 181 1.0 3.0 0.00 0.00 0.00 35 1017.2
20260502234105 49 220 0.0 1.0 0.00 0.00 0.00 34 1017.2
20260502233045 49 244 0.0 1.0 0.00 0.00 0.00 34 1017.1
20260502232025 49 199 1.0 2.0 0.00 0.00 0.00 34 1017.3
20260502231107 50 151 1.0 2.0 0.00 0.00 0.00 33 1017.3
20260502230048 50 144 1.0 5.0 0.00 0.00 0.00 33 1017.4
20260502225027 50 159 1.0 2.0 0.00 0.00 0.00 34 1017.3
20260502224129 50 160 1.0 2.0 0.00 0.00 0.00 34 1017.5
20260502223109 50 198 1.0 3.0 0.00 0.00 0.00 33 1017.4
20260502222029 50 256 1.0 6.0 0.00 0.00 0.00 34 1017.4
20260502221111 50 166 0.0 2.0 0.00 0.00 0.00 34 1017.4
20260502220051 51 237 1.0 2.0 0.00 0.00 0.00 33 1017.4
20260502215031 51 240 2.0 5.0 0.00 0.00 0.00 33 1017.2
20260502214133 51 172 1.0 3.0 0.00 0.00 0.00 34 1017.2
20260502213113 50 170 1.0 2.0 0.00 0.00 0.00 35 1017.3